Gainesville, FL

4:27 PM EST on January 21, 2018 (GMT -0500)
Gainesville Regional

Weather History for KGNV - June, 2014

Change the Weather History Date:

Sunday, June 1, 2014

  Actual Average Record
Temperature  
Mean Temperature 77 °F 78 °F  
Max Temperature 85 °F 89 °F 102 °F (1927)
Min Temperature 68 °F 67 °F 50 °F (1984)
Degree Days  
Heating Degree Days 0 0  
Month to date heating degree days 0 0  
Since 1 June heating degree days 0 0  
Since 1 July heating degree days 1098 1218  
Cooling Degree Days 12 13  
Month to date cooling degree days 12 13  
Year to date cooling degree days 513 523  
Since 1 June cooling degree days 12 13  
Growing Degree Days 26 (Base 50)    
Moisture  
Dew Point 71 °F    
Average Humidity 81    
Maximum Humidity 100    
Minimum Humidity 61    
Precipitation  
Precipitation 0.49 in 0.18 in 3.03 in (1901)
Month to date precipitation 0.49 0.18  
Year to date precipitation 21.03 16.17  
Snow  
Snow 0.00 in 0.00 in 0.00 in ()
Month to date snowfall 0.0 0.0  
Since 1 June snowfall 0.0 0.0  
Since 1 July snowfall 0.0 0.0  
Snow Depth 0.00 in    
Sea Level Pressure  
Sea Level Pressure 30.09 in    
Wind  
Wind Speed 7 mph (ENE)    
Max Wind Speed 18 mph    
Max Gust Speed 24 mph    
Visibility 8 miles    
Events Fog , Rain , Thunderstorm    
T = Trace of Precipitation, MM = Missing Value Source: NWS Daily Summary

Daily Weather History Graph

Daily Weather History Graph

Search for Another Location

Airport or City:

Trip Planner

Search our weather history database for the weather conditions in past years. The results will help you decide how hot, cold, wet, or windy it might be!

Date:

Astronomy

Jun. 01, 2014 Rise Set
Actual Time 6:29 AM EDT 8:24 PM EDT
Civil Twilight 6:02 AM EDT 8:51 PM EDT
Nautical Twilight 5:29 AM EDT 9:24 PM EDT
Astronomical Twilight 4:55 AM EDT 9:59 PM EDT
Moon 9:51 AM EDT (6/1) 11:29 PM EDT (6/1)
Length of Visible Light 14h 49m
Length of Day
13h 55m
Waxing Crescent, 14% of the Moon is Illuminated
Jun 1
Waxing Crescent
Jun 5
First Quarter
Jun 13
Full
Jun 19
Last Quarter
Jun 27
New

Hourly Weather History & Observations

Time (EDT) Temp. Heat Index Dew Point Humidity Pressure Visibility Wind Dir Wind Speed Gust Speed Precip Events Conditions
12:53 AM 72.0 °F - 70.0 °F 93% 30.06 in 10.0 mi Calm Calm - N/A   Clear
1:53 AM 71.1 °F - 70.0 °F 96% 30.06 in 10.0 mi ENE 3.5 mph - N/A   Clear
2:53 AM 71.1 °F - 70.0 °F 96% 30.05 in 10.0 mi Calm Calm - N/A   Clear
3:53 AM 70.0 °F - 69.1 °F 97% 30.05 in 10.0 mi Calm Calm - N/A   Clear
4:53 AM 69.1 °F - 68.0 °F 96% 30.05 in 9.0 mi Calm Calm - N/A   Clear
5:53 AM 70.0 °F - 69.1 °F 97% 30.06 in 8.0 mi Calm Calm - N/A   Partly Cloudy
6:53 AM 70.0 °F - 69.1 °F 97% 30.07 in 8.0 mi NE 4.6 mph - N/A   Partly Cloudy
8:53 AM 77.0 °F - 73.0 °F 88% 30.10 in 10.0 mi ENE 6.9 mph - N/A   Clear
9:05 AM 78.1 °F - 73.0 °F 84% 30.11 in 10.0 mi NE 8.1 mph - N/A   Partly Cloudy
9:31 AM 78.1 °F - 73.0 °F 84% 30.11 in 10.0 mi ENE 9.2 mph - N/A   Mostly Cloudy
10:18 AM 80.1 °F 83.6 °F 71.1 °F 74% 30.11 in 10.0 mi ENE 10.4 mph - N/A   Mostly Cloudy
10:53 AM 82.0 °F 86.3 °F 71.1 °F 69% 30.10 in 10.0 mi NE 11.5 mph - N/A   Mostly Cloudy
11:53 AM 82.9 °F 87.5 °F 71.1 °F 67% 30.10 in 10.0 mi ENE 12.7 mph - 0.00 in   Mostly Cloudy
12:53 PM 82.9 °F 87.5 °F 71.1 °F 67% 30.09 in 10.0 mi ENE 10.4 mph - N/A   Scattered Clouds
1:53 PM 84.0 °F 88.4 °F 70.0 °F 63% 30.08 in 10.0 mi East 11.5 mph - N/A   Mostly Cloudy
2:53 PM 77.0 °F - 70.0 °F 79% 30.08 in 9.0 mi ENE 10.4 mph - 0.00 in Rain Light Rain
3:15 PM 78.1 °F - 70.0 °F 76% 30.09 in 10.0 mi NE 11.5 mph - 0.00 in Thunderstorm Mostly Cloudy
3:41 PM 78.1 °F - 71.1 °F 79% 30.08 in 10.0 mi NE 11.5 mph - 0.00 in   Mostly Cloudy
3:53 PM 78.1 °F - 71.1 °F 79% 30.08 in 10.0 mi NE 9.2 mph - 0.00 in   Mostly Cloudy
4:25 PM 75.0 °F - 71.1 °F 87% 30.09 in 1.5 mi East 18.4 mph 24.2 mph 0.00 in Rain , Thunderstorm Heavy Thunderstorms and Rain
4:34 PM 73.0 °F - 71.1 °F 93% 30.09 in 0.5 mi NE 13.8 mph 24.2 mph 0.32 in Fog , Rain , Thunderstorm Heavy Thunderstorms and Rain
4:42 PM 73.0 °F - 71.1 °F 93% 30.09 in 2.5 mi NE 9.2 mph - 0.40 in Rain , Thunderstorm Light Thunderstorms and Rain
4:49 PM 73.4 °F - 71.6 °F 94% 30.09 in 7.0 mi NE 6.9 mph - 0.41 in Rain , Thunderstorm Light Thunderstorms and Rain
4:53 PM 73.0 °F - 72.0 °F 96% 30.09 in 5.0 mi NE 5.8 mph - 0.41 in Rain , Thunderstorm Light Rain
5:08 PM 73.0 °F - 72.0 °F 96% 30.08 in 6.0 mi NNE 5.8 mph - 0.01 in Rain Light Rain
5:39 PM 73.9 °F - 72.0 °F 93% 30.08 in 8.0 mi NE 6.9 mph - 0.01 in   Overcast
5:53 PM 73.9 °F - 72.0 °F 93% 30.08 in 10.0 mi NE 6.9 mph - 0.01 in   Overcast
6:00 PM 73.9 °F - 72.0 °F 93% 30.08 in 10.0 mi NE 6.9 mph - N/A   Mostly Cloudy
6:37 PM 73.9 °F - 71.1 °F 91% 30.09 in 10.0 mi East 15.0 mph 23.0 mph N/A   Mostly Cloudy
6:53 PM 73.9 °F - 71.1 °F 91% 30.09 in 10.0 mi East 11.5 mph - 0.00 in Rain Light Rain
7:06 PM 73.0 °F - 71.1 °F 93% 30.10 in 10.0 mi East 10.4 mph - 0.00 in   Overcast
7:17 PM 73.0 °F - 71.1 °F 93% 30.10 in 6.0 mi East 9.2 mph - 0.00 in   Overcast
7:24 PM 73.0 °F - 71.1 °F 93% 30.10 in 4.0 mi East 11.5 mph - 0.00 in Rain Light Rain
7:41 PM 72.0 °F - 71.1 °F 97% 30.11 in 3.0 mi East 8.1 mph - 0.01 in Rain Rain
7:53 PM 72.0 °F - 70.0 °F 93% 30.11 in 4.0 mi East 9.2 mph - 0.01 in Rain Light Rain
8:18 PM 71.1 °F - 70.0 °F 96% 30.12 in 2.5 mi East 11.5 mph - 0.02 in Rain Light Rain
8:31 PM 71.1 °F - 70.0 °F 96% 30.13 in 3.0 mi East 10.4 mph - 0.02 in Rain Light Rain
8:53 PM 71.1 °F - 69.1 °F 93% 30.12 in 5.0 mi East 8.1 mph - 0.03 in Rain Light Rain
9:27 PM 70.0 °F - 69.1 °F 97% 30.13 in 4.0 mi ENE 10.4 mph - 0.02 in Rain Light Rain
9:44 PM 70.0 °F - 69.1 °F 97% 30.13 in 6.0 mi ENE 6.9 mph - 0.03 in Rain Light Rain
9:53 PM 70.0 °F - 69.1 °F 97% 30.12 in 10.0 mi ENE 9.2 mph - 0.03 in   Overcast
10:15 PM 70.0 °F - 69.1 °F 97% 30.13 in 9.0 mi ENE 5.8 mph - N/A   Overcast
10:26 PM 70.0 °F - 69.1 °F 97% 30.13 in 10.0 mi ENE 4.6 mph - N/A   Overcast
11:53 PM 71.1 °F - 69.1 °F 93% 30.13 in 10.0 mi ENE 4.6 mph - N/A   Overcast